Location: ??
(35.4627°N, 139.3695°E)
Time: 15:08:34
(UTC+00:00)

Cosmos 1943 - Pass Details

Date: 25 November 2020
Orbit: 832 x 851 km, 71.0° (Epoch: 21 January)

Event Time Altitude Azimuth Distance (km) Brightness Sun altitude
Exits shadow 19:48:21 11° 344° (NNW) 2,407 5.3 -20.1°
Maximum altitude 19:53:50 70° 68° (ENE) 904 3.5 -19.0°
Drops below altitude 10° 19:59:29 10° 151° (SSE) 2,467 6.2 -17.9°
Sets 20:01:56 0° 154° (SSE) 3,397 6.9 -17.4°
